GFSMA_850_thetae_021.txt.gz
Theta_e
330 329 329 329 329 329 329 329 329 330 330 330 330 330 330 330 330 329 329 328 329 328 328 328 328 327 325 323 323 320 315 310 309 310 317 323 324 322 318 312 311 310 310
332 331 331 331 331 331 330 330 330 331 330 330 330 330 330 330 329 329 328 328 328 328 327 327 327 327 328 327 326 325 324 323 319 312 310 320 323 324 324 323 321 315 311
331 331 331 331 332 331 330 330 330 330 329 329 328 328 328 328 327 326 326 326 327 328 327 327 326 325 325 325 329 332 330 328 326 324 321 314 316 321 324 325 325 324 322
331 330 331 331 331 329 329 328 327 327 326 325 325 324 322 323 323 323 323 326 326 326 326 326 326 325 324 324 325 325 327 329 329 328 327 326 324 320 320 322 322 323 324
329 329 330 328 324 325 323 322 319 319 319 318 319 318 318 319 319 318 321 323 324 325 325 325 324 324 323 323 323 323 324 325 325 326 327 328 328 326 325 321 321 322 322
323 321 317 314 312 313 313 310 311 311 311 312 312 313 312 313 312 317 321 320 323 324 322 319 321 323 324 324 323 323 324 324 324 325 325 325 326 327 327 326 325 321 320
313 311 309 309 309 310 310 309 309 309 309 309 309 309 309 311 313 312 315 319 320 315 313 314 314 317 320 322 321 318 321 321 321 322 323 325 325 325 326 327 327 326 325
309 309 310 310 310 310 308 307 305 305 305 305 306 305 308 307 309 309 306 306 307 309 311 313 314 314 313 312 316 317 316 317 317 319 320 320 320 322 325 326 325 326 326
310 311 310 308 306 305 303 301 300 299 300 300 303 303 304 305 304 304 304 305 307 307 307 309 310 307 309 307 310 312 313 313 316 318 319 319 319 320 321 320 322 327 325
310 308 307 306 304 302 299 297 296 296 298 300 299 300 300 301 303 304 303 302 302 302 298 300 301 301 303 305 308 310 310 312 312 312 314 316 316 316 318 319 321 320 323
308 308 305 303 301 298 296 295 294 294 295 298 296 297 299 300 301 300 300 299 298 297 298 299 301 301 301 303 306 309 309 308 307 309 310 310 311 311 313 315 317 319 319
307 306 303 300 297 295 294 294 294 294 294 294 294 295 297 300 299 297 296 297 297 298 299 299 300 300 302 301 303 303 303 302 303 305 306 306 307 307 310 309 310 314 315
306 305 302 298 295 294 293 293 293 293 293 293 293 295 294 295 296 295 295 296 297 298 298 297 298 296 297 298 297 297 298 299 300 301 303 303 303 302 303 303 304 306 308
303 301 298 295 293 293 293 292 292 292 293 293 293 293 293 294 293 294 295 295 296 295 293 293 294 295 294 294 294 294 293 293 295 299 300 300 299 298 299 300 299 302 306
300 297 294 293 292 292 292 292 292 292 291 291 291 292 292 292 293 292 294 293 293 293 292 292 292 292 293 292 293 294 293 295 296 297 297 296 297 299 297 298 300 303 303
296 293 292 291 291 292 292 292 291 291 290 290 291 291 291 291 291 292 292 291 291 291 291 291 291 292 292 293 292 292 293 293 292 294 295 295 296 295 296 296 299 300 301
291 291 291 291 292 292 292 290 290 289 289 290 290 290 291 290 291 290 290 290 290 290 290 291 291 292 291 291 291 291 291 292 292 292 293 294 294 293 293 294 295 297 298
291 291 291 292 292 291 290 289 289 289 288 289 289 290 290 290 290 290 289 289 289 289 289 290 290 290 290 290 291 291 290 290 290 291 292 292 292 293 294 294 294 295 297
290 291 291 291 291 290 288 288 288 288 288 288 289 289 289 289 289 289 289 289 288 289 290 289 289 289 289 290 290 289 288 288 290 290 290 291 292 292 294 294 295 295 296
290 291 291 290 289 288 288 287 287 287 287 288 288 288 289 288 288 288 288 288 289 289 288 289 289 289 289 290 289 288 288 288 289 288 288 289 290 291 292 293 295 296 297
290 290 290 289 288 287 287 287 286 287 287 287 287 288 288 288 288 288 288 288 288 288 288 288 289 289 289 288 288 287 287 287 287 288 288 289 289 290 291 292 293 293 292
290 289 289 288 287 287 287 287 287 286 286 286 287 287 287 287 287 287 288 288 288 288 288 288 288 289 287 287 286 286 286 287 287 287 288 288 288 289 290 291 292 294 294
289 288 288 287 287 286 286 286 286 286 286 287 287 287 287 287 287 286 287 287 287 287 288 287 287 286 285 285 285 286 287 286 286 286 287 288 288 290 291 291 292 292 294
288 287 287 286 286 285 285 285 286 286 286 286 286 286 286 286 286 287 287 287 286 286 285 285 285 285 285 285 286 286 285 285 286 286 287 288 289 288 289 289 290 290 291
287 287 286 285 285 285 285 285 286 286 285 285 286 286 286 286 286 287 287 286 285 284 284 285 285 285 285 285 285 285 285 285 285 286 286 286 287 289 288 288 288 289 292
286 286 285 285 285 285 285 286 286 286 285 285 285 285 285 286 286 286 286 285 284 283 284 284 283 283 283 283 284 284 284 284 284 285 284 285 285 286 287 289 290 291 289

GFSMA_850_thetae_024.txt.gz
Theta_e
329 329 329 329 328 329 330 330 330 330 330 330 330 330 330 329 329 329 328 328 328 329 328 328 327 327 327 329 330 330 328 326 325 322 315 317 321 323 324 325 322 317 312
331 330 329 331 331 331 331 330 330 329 329 329 329 328 327 326 326 327 327 326 326 326 326 327 328 327 326 326 329 327 329 330 329 327 326 326 323 320 321 323 324 324 321
331 331 331 331 330 330 329 328 328 328 327 325 324 322 324 323 317 317 318 318 320 323 326 326 325 324 324 324 325 327 326 327 328 329 329 328 327 326 323 320 322 323 324
330 330 329 330 328 328 326 325 323 321 317 316 315 316 317 317 316 315 313 315 319 321 323 324 324 325 324 323 323 323 322 321 323 325 327 328 328 328 327 326 323 320 323
328 330 329 324 319 319 316 313 310 310 310 310 310 311 310 311 308 309 312 315 319 321 322 321 319 315 315 317 321 324 325 324 322 321 322 324 325 326 326 327 327 327 324
321 318 313 310 310 310 310 310 310 309 308 306 305 305 305 305 309 311 310 314 314 314 317 316 318 311 312 315 317 319 320 323 322 320 320 321 321 324 324 325 326 326 328
310 309 311 311 311 309 307 307 305 304 304 302 300 301 301 305 304 305 310 306 304 303 305 307 309 311 313 314 315 314 312 313 315 316 317 318 318 317 318 321 326 326 326
310 311 311 309 308 307 307 305 301 300 298 298 300 299 301 301 306 299 300 298 304 306 306 302 303 303 302 302 303 300 301 304 305 312 315 316 318 319 319 320 321 322 323
311 310 309 309 308 306 304 300 298 296 296 296 296 298 300 301 298 300 298 300 303 298 299 299 297 296 297 300 301 302 302 305 309 311 312 314 315 315 317 316 317 318 319
310 310 309 307 305 303 301 298 296 295 295 294 295 295 294 295 299 300 300 297 296 295 295 296 296 298 300 300 297 299 304 307 306 308 310 311 312 313 313 313 313 314 315
310 309 307 305 303 301 298 296 295 294 294 293 293 294 293 294 294 297 297 296 295 294 295 295 298 297 297 296 298 300 300 301 301 301 303 305 307 308 309 310 310 309 310
308 307 306 304 301 298 296 294 294 293 293 293 293 293 293 294 293 294 296 295 294 294 295 295 295 297 293 294 295 296 296 297 298 299 300 301 301 301 303 305 305 305 306
307 306 304 300 297 295 294 293 293 293 293 293 292 292 292 292 292 293 293 293 293 293 294 293 293 292 292 294 293 291 292 292 292 294 295 297 299 300 301 301 301 300 301
305 303 300 296 294 293 293 293 293 293 292 292 291 291 291 291 291 292 292 293 292 293 292 292 291 290 290 292 291 292 292 293 293 293 293 295 296 296 298 297 297 300 300
301 298 295 293 293 292 292 292 292 292 291 290 290 290 290 290 290 291 291 291 292 292 291 290 290 290 290 290 291 292 291 291 292 292 293 293 294 294 296 296 296 297 297
296 294 293 292 292 292 292 292 292 291 290 289 289 288 289 290 290 290 290 290 290 290 290 289 290 290 289 290 290 290 289 290 290 292 292 292 293 293 293 294 294 295 294
293 292 292 291 292 292 292 292 291 290 289 288 288 287 288 289 289 290 289 289 289 289 289 289 288 288 289 288 288 289 289 289 290 290 290 290 290 292 293 293 293 293 295
292 291 291 292 292 292 292 290 289 288 287 288 287 286 287 288 288 288 289 288 288 288 288 288 288 289 288 287 288 288 289 289 290 288 288 288 291 291 291 292 293 293 293
291 291 291 292 292 291 290 289 287 287 287 287 286 286 286 287 288 288 288 288 288 288 288 289 288 287 288 288 288 288 289 288 287 287 286 287 288 289 289 290 291 292 293
291 291 291 291 291 289 288 287 287 287 287 287 286 285 286 287 288 287 288 288 288 288 288 288 288 288 287 287 288 288 286 286 285 285 286 286 288 288 288 289 290 291 291
290 291 291 290 289 288 287 287 287 287 287 286 285 286 287 287 287 287 288 288 288 287 288 288 288 287 287 286 286 286 285 285 285 285 286 287 286 286 286 287 288 290 291
291 291 290 288 287 287 286 287 287 287 286 286 285 286 286 286 286 287 287 287 287 288 287 287 287 286 285 285 285 285 285 285 285 286 286 285 285 286 286 287 288 291 292
290 289 288 287 286 286 286 287 287 286 286 286 286 285 285 285 285 285 286 287 287 286 287 286 285 284 284 285 285 285 285 285 285 285 284 285 285 286 286 286 287 288 290
289 288 287 286 285 285 285 286 286 286 286 286 285 285 285 285 285 286 286 287 286 285 285 284 284 284 285 285 285 284 284 284 284 284 284 285 285 286 285 285 286 287 288
288 287 286 285 285 285 285 286 286 286 286 286 286 285 285 285 285 286 286 286 285 284 283 283 284 284 284 283 284 283 283 283 283 283 283 283 284 284 284 284 285 286 288
287 286 285 284 284 284 284 286 286 286 286 285 285 285 284 285 285 286 286 285 284 283 283 284 283 282 282 282 282 282 282 282 283 283 282 283 283 284 284 285 287 286 287

GFSMA_850_thetae_030.txt.gz
Theta_e
330 329 328 328 329 329 329 328 328 327 327 327 327 328 328 326 324 319 317 317 318 321 324 323 321 322 323 326 327 326 325 325 323 321 324 326 328 328 329 327 322 322 324
331 330 330 330 328 329 328 328 327 327 327 325 325 321 315 312 312 313 313 313 312 311 311 313 318 319 321 325 326 324 325 326 325 323 323 323 323 324 327 329 329 328 325
331 331 330 328 328 327 327 327 326 326 324 314 311 311 311 310 310 309 309 309 310 308 311 315 317 319 319 319 319 319 320 321 321 320 318 318 324 323 323 323 325 328 329
328 328 328 326 326 325 325 324 313 311 311 310 309 308 307 305 305 304 304 305 309 311 313 312 313 315 314 311 310 311 312 313 313 315 316 318 319 320 322 323 322 321 324
328 326 325 325 321 313 311 310 309 309 308 307 306 305 304 303 304 306 309 309 307 306 304 303 303 305 306 305 304 305 306 307 308 309 311 312 312 314 316 318 319 320 320
326 324 314 310 310 310 309 308 308 306 304 303 303 303 303 302 303 301 301 303 302 301 300 300 303 301 300 298 297 298 299 300 302 303 304 306 307 309 311 315 317 318 319
311 310 310 310 309 309 308 307 305 303 301 300 300 301 301 300 300 302 301 299 298 297 298 301 298 295 295 295 295 295 295 296 298 300 303 307 309 311 312 313 314 314 314
310 310 310 310 309 309 307 304 302 300 298 296 295 296 296 298 301 299 298 295 295 295 295 295 294 293 293 293 293 294 293 293 294 298 303 304 306 307 307 309 311 312 313
311 310 310 310 309 306 303 301 298 297 296 294 293 294 294 295 293 295 294 294 293 293 293 293 293 292 292 291 292 291 292 292 294 299 300 301 302 304 305 306 306 307 309
310 310 310 309 306 302 300 297 295 294 294 293 293 292 292 292 291 292 292 292 291 291 291 291 291 291 290 291 290 290 290 292 293 296 298 298 300 300 301 302 303 304 306
310 310 308 305 301 299 297 295 294 293 293 293 292 292 292 291 290 291 291 290 290 290 290 290 290 289 290 290 290 290 291 291 293 295 295 296 297 298 299 300 301 301 303
309 308 305 301 298 296 295 293 293 292 293 293 292 291 290 290 290 289 288 288 289 289 289 289 289 289 289 289 289 288 290 291 292 292 293 296 297 296 297 298 299 300 300
308 305 302 299 296 294 293 292 292 293 293 292 291 290 290 289 289 288 287 287 288 288 288 289 289 289 289 289 288 288 289 289 290 291 292 293 293 294 294 295 296 297 297
306 302 299 296 294 293 292 292 292 292 292 291 290 289 289 288 288 287 286 286 287 288 288 288 288 288 288 288 288 288 287 288 289 289 290 291 291 292 293 293 294 296 296
304 300 297 295 293 292 292 292 292 291 290 290 289 288 288 287 287 286 286 285 287 287 287 287 288 288 287 287 287 287 287 287 288 289 289 289 290 290 291 292 293 294 294
301 297 295 292 292 292 292 292 291 290 289 288 288 287 287 287 286 285 285 286 287 287 287 287 287 287 287 287 287 287 287 288 287 287 288 289 289 290 291 292 293 293 293
297 294 292 292 292 292 291 290 289 288 288 287 287 287 287 286 286 285 285 286 286 286 287 287 286 287 287 287 286 287 287 287 287 287 287 287 288 289 290 290 291 290 290
293 292 291 291 292 291 290 289 288 287 287 287 287 287 287 286 285 285 285 286 286 286 286 287 287 286 286 286 287 287 287 286 285 285 285 286 287 288 287 288 288 288 289
291 291 291 292 290 289 288 288 287 286 286 287 287 287 286 286 285 285 285 286 286 286 286 286 286 286 286 287 286 286 286 284 283 283 284 284 285 286 286 287 287 288 288
291 292 291 290 289 288 287 287 286 286 287 287 286 286 286 286 285 286 286 286 286 286 286 286 286 287 286 286 286 284 283 283 283 284 284 285 285 285 285 286 286 287 287
292 291 290 289 288 287 287 286 286 287 286 286 286 286 286 285 286 286 286 286 285 285 286 286 286 286 286 284 284 283 283 283 284 284 284 283 283 283 283 284 284 284 285
291 290 289 288 287 286 286 285 287 286 286 286 286 286 285 284 284 285 285 285 286 286 285 286 287 284 284 283 283 283 283 284 283 283 283 283 283 282 282 282 283 284 285
290 289 288 287 286 286 285 285 286 286 286 285 285 284 284 284 284 283 284 285 284 285 285 284 283 283 283 283 284 284 283 282 282 282 282 282 282 282 282 282 283 284 285
289 288 287 286 285 285 284 284 284 285 284 284 284 284 284 284 283 284 285 285 285 284 283 282 282 283 284 283 283 282 282 282 282 282 281 281 282 282 282 282 283 284 284
288 287 286 285 285 284 284 283 285 284 284 284 284 285 284 283 283 285 286 284 283 282 282 283 283 283 282 282 282 282 282 281 281 281 281 281 282 282 282 283 284 284 285
287 286 286 285 284 284 283 283 285 284 284 284 285 284 283 283 284 285 284 283 282 281 283 283 282 281 281 282 281 281 281 280 280 281 282 281 282 282 283 283 283 283 283

GFSMA_850_thetae_033.txt.gz
Theta_e
330 329 328 328 328 328 328 327 327 327 326 326 325 325 325 325 320 315 313 314 314 314 313 313 313 315 317 318 320 325 327 327 326 327 325 323 323 323 323 325 329 329 328
329 330 330 330 330 327 327 326 326 326 325 325 324 322 314 312 311 310 310 310 311 310 310 309 310 313 316 318 320 321 321 322 323 324 324 323 321 318 316 321 323 324 328
330 330 328 327 326 326 325 325 325 324 323 316 311 310 310 308 307 306 305 305 305 305 307 309 311 313 314 314 315 316 316 315 315 315 315 315 316 315 317 320 322 323 323
329 328 327 326 325 325 324 322 313 310 310 310 309 308 307 306 305 304 303 304 306 308 308 306 305 304 306 307 308 309 309 309 309 310 310 311 311 312 314 316 316 318 321
328 326 325 325 321 312 310 310 309 309 308 307 306 305 304 303 303 303 305 307 306 303 302 302 301 301 302 302 301 301 299 300 301 303 304 305 307 307 308 311 312 314 317
328 326 322 311 310 310 309 308 308 306 304 303 303 303 302 302 301 303 300 300 301 300 297 298 299 300 300 296 295 295 295 296 296 297 298 300 302 306 307 310 313 314 315
325 311 310 310 310 310 310 308 304 302 301 301 301 302 301 301 299 299 301 300 299 297 296 295 295 295 295 295 294 294 294 294 295 297 298 302 305 306 307 308 309 310 311
310 310 310 310 311 309 307 303 302 300 298 297 296 297 296 297 299 300 297 297 295 295 294 294 294 294 293 294 293 293 293 293 293 296 299 300 302 303 304 305 306 307 308
310 310 311 311 309 305 302 301 299 297 296 295 293 294 293 293 292 294 294 294 293 293 292 292 292 292 292 292 291 292 292 291 293 296 297 299 300 301 302 303 304 304 305
310 311 311 309 305 302 300 298 297 295 294 293 293 292 292 291 290 291 291 292 292 291 291 291 291 290 290 290 290 290 290 290 292 295 297 298 299 299 300 301 302 303 303
310 310 309 306 303 300 298 296 295 294 293 293 292 292 291 290 290 290 289 289 290 290 290 289 289 289 289 289 289 288 289 291 292 293 295 296 297 298 299 301 301 301 301
310 309 307 304 301 298 296 295 293 293 292 292 292 290 289 289 289 288 287 287 287 287 287 288 289 288 288 288 288 288 288 290 291 292 292 294 295 296 296 296 297 298 299
309 307 305 301 298 296 294 293 292 292 292 291 290 290 289 288 288 287 287 287 286 286 286 287 287 287 287 287 287 287 287 289 289 290 291 292 293 294 294 294 294 295 296
308 306 302 298 295 293 292 292 292 292 291 290 289 289 288 287 287 287 286 285 285 286 286 286 287 286 287 287 287 287 287 287 288 289 290 291 292 292 291 292 292 293 294
306 302 298 295 293 292 292 292 292 291 290 289 289 288 287 287 287 286 286 285 285 286 285 286 286 286 286 286 286 287 287 286 287 288 289 290 289 290 290 291 291 292 293
302 298 295 293 292 291 292 292 290 290 289 289 288 287 287 287 286 286 285 285 285 285 285 285 285 286 286 286 286 286 286 287 287 287 288 288 289 289 289 289 289 290 291
299 295 293 292 292 292 292 290 290 289 288 287 287 287 287 286 286 286 286 285 285 285 285 285 285 285 285 285 285 286 286 286 286 286 287 287 287 287 287 288 289 289 290
295 293 292 292 292 292 290 289 289 288 287 287 287 286 286 286 286 286 285 285 285 285 285 285 286 285 285 285 286 286 286 286 286 286 285 285 285 286 287 287 288 288 288
292 291 291 292 291 290 289 289 288 287 287 286 286 286 286 286 286 285 285 285 285 286 286 285 285 285 285 286 285 286 284 284 283 283 284 284 285 285 286 287 287 287 288
291 291 292 291 290 289 289 288 287 287 286 286 286 286 286 285 285 285 285 285 285 285 285 285 285 285 285 285 284 283 283 283 283 283 283 284 284 284 285 285 285 286 286
291 292 291 290 289 289 288 286 286 286 286 286 286 285 284 284 284 285 285 285 284 285 285 285 285 285 283 283 282 282 283 283 283 283 283 282 282 282 282 283 283 283 284
292 291 290 289 289 288 287 286 285 286 285 285 284 284 283 283 284 284 284 284 285 285 286 286 284 283 282 282 282 283 284 283 282 282 282 282 282 282 282 282 282 283 284
292 291 289 288 288 287 286 285 284 286 284 284 284 284 284 284 284 283 284 284 286 285 284 283 282 282 282 283 284 283 282 282 282 282 282 282 281 281 282 282 283 283 284
291 290 289 288 287 286 285 284 284 284 284 284 284 284 285 284 283 284 285 286 284 283 282 282 282 283 284 283 282 282 282 282 282 281 281 281 281 282 282 283 283 284 284
290 289 288 287 285 285 284 283 283 284 284 284 284 285 284 283 283 285 285 284 283 282 282 283 283 282 281 282 282 282 282 281 281 281 281 280 281 281 281 282 283 283 284
289 288 287 285 284 283 283 283 284 284 284 284 285 284 283 283 284 284 284 283 282 282 283 283 282 282 282 282 282 282 281 280 280 280 281 281 281 281 282 282 283 283 283

GFSMA_850_thetae_039.txt.gz
Theta_e
329 328 328 328 327 328 326 325 325 325 324 324 323 323 322 319 312 310 309 309 308 307 306 307 307 308 308 308 309 310 312 314 315 317 320 320 323 324 324 324 324 324 325
328 328 327 327 327 327 325 324 324 323 323 322 319 312 310 309 309 308 307 306 305 304 304 304 304 305 306 308 309 311 313 314 315 316 317 318 318 318 319 321 323 322 320
328 328 327 326 325 324 323 322 323 322 313 310 309 308 307 306 305 305 304 303 303 303 304 305 305 304 304 303 303 303 304 303 304 306 308 311 313 313 313 313 315 315 315
330 329 327 326 325 324 324 319 311 310 309 308 307 306 304 304 303 303 302 302 304 305 304 302 300 299 298 297 298 299 300 300 299 300 300 300 302 303 305 308 310 310 311
331 329 327 326 325 322 310 310 309 309 307 304 303 303 303 303 302 301 301 301 300 299 299 298 298 297 296 296 296 295 295 295 295 296 296 296 296 297 298 300 304 308 308
330 328 327 326 318 310 310 310 309 305 303 303 302 302 302 301 301 300 300 300 299 299 298 297 296 296 295 295 295 295 294 294 294 294 294 295 296 300 305 306 307 308 309
329 327 326 316 310 310 311 309 306 303 302 302 301 301 299 299 298 298 298 297 296 296 296 296 295 294 294 294 294 294 294 294 294 294 294 295 300 303 303 304 305 306 307
327 325 316 310 310 311 309 307 304 302 301 300 298 297 296 297 299 298 297 296 296 295 294 293 294 294 294 294 294 293 293 293 293 293 294 299 300 301 302 303 304 305 306
324 316 310 311 311 311 309 306 303 301 299 297 296 295 294 294 294 296 295 295 294 293 293 293 293 293 293 292 292 292 292 291 291 292 297 298 299 300 301 302 303 304 304
317 310 310 311 311 310 307 304 302 299 297 295 295 294 293 292 291 291 292 292 292 292 292 292 292 292 291 291 290 290 289 289 289 294 296 297 297 299 300 301 301 302 302
311 310 310 311 310 308 305 302 299 296 295 294 294 293 292 291 290 289 290 291 291 291 291 290 291 290 290 289 288 287 287 288 291 292 294 295 296 297 298 298 299 300 301
309 310 310 310 308 306 303 299 296 295 294 294 293 292 290 289 289 288 288 288 288 288 289 289 290 289 289 288 287 287 286 286 289 290 291 293 294 295 295 296 297 297 298
309 310 310 309 307 304 300 296 295 294 293 293 292 291 290 289 288 288 287 287 287 287 287 287 287 287 287 286 285 285 285 286 287 288 290 291 292 292 293 293 294 295 296
309 309 309 307 304 301 297 294 294 293 293 292 291 290 289 288 288 287 287 286 286 287 287 287 286 286 286 285 285 285 285 286 286 287 288 289 290 290 291 291 291 293 294
309 309 307 305 301 297 294 293 293 293 291 291 290 289 288 288 287 287 286 286 286 286 286 286 286 286 285 285 285 285 285 286 286 287 287 288 288 289 290 290 291 291 291
309 307 304 301 297 294 293 293 293 292 291 290 289 288 288 287 287 286 286 286 286 286 285 286 285 285 285 285 285 285 285 285 285 286 286 287 287 288 288 289 289 289 290
307 305 301 297 294 293 293 292 291 291 290 289 288 288 287 286 286 285 285 285 284 284 285 284 285 285 285 285 285 285 285 285 285 285 285 286 286 287 287 288 288 289 289
305 301 298 294 293 293 292 291 291 290 289 288 288 287 286 285 285 284 284 284 284 284 285 284 284 284 285 285 285 285 284 284 283 283 284 285 286 286 286 287 287 288 288
301 298 295 293 293 293 291 291 290 289 288 288 287 286 285 284 284 284 284 284 284 285 284 284 284 285 285 285 285 283 283 283 283 283 283 284 284 285 286 286 287 287 287
298 295 293 293 293 292 291 290 289 288 287 286 285 285 284 284 284 284 285 285 285 285 284 285 285 285 284 284 283 282 283 283 283 283 283 283 284 284 285 285 285 285 285
295 293 293 293 292 291 291 289 288 287 286 285 285 284 284 284 284 285 285 285 284 285 285 285 286 284 283 283 282 282 283 283 283 283 283 283 283 283 284 284 284 284 284
293 293 293 292 292 291 290 288 286 285 285 284 284 284 284 284 284 284 284 284 285 285 286 285 284 283 282 283 282 283 283 283 283 283 283 283 283 283 283 283 283 284 284
293 293 292 292 291 290 288 287 285 284 284 284 284 284 284 284 283 283 283 284 285 285 284 283 283 282 282 283 284 283 282 282 282 283 282 282 283 282 283 283 284 283 284
292 292 292 291 290 288 286 285 284 284 284 283 284 284 284 283 283 284 284 285 284 283 283 282 282 283 283 283 282 282 282 282 282 283 282 281 283 282 283 284 285 285 285
292 292 291 290 288 286 285 284 283 283 283 284 284 284 283 283 283 284 285 284 283 283 282 283 283 282 282 282 282 281 282 281 281 282 284 281 283 282 283 286 286 286 285
292 291 290 288 286 285 284 283 283 283 284 284 284 284 283 283 284 285 284 283 282 281 283 283 282 282 283 284 283 282 282 281 280 280 284 282 281 282 282 284 286 287 288